���t,����,�O�C���x,�����t���O,�O�C���Ύ��x,�����t���O,���ԉ��x,�����t���O,���ԑ��Ύ��x,�����t���O,�g�C������,�����t���O,�L�b�`�����x,�����t���O,��󒲎����x,�����t���O
2004/11/1,0:00,15.6,0,85,0,24.9,0,59.6,0,20.8,0,24,0,20.3,0
2004/11/1,0:15,15.7,0,86,0,24.9,0,60.8,0,20.9,0,24,0,20.3,0
2004/11/1,0:30,15.5,0,85,0,24.8,0,60.1,0,20.9,0,24,0,20.3,0
2004/11/1,0:45,15.8,0,86,0,24.7,0,59.7,0,21,0,24,0,20.2,0
2004/11/1,1:00,15.8,0,85,0,24.6,0,59.4,0,21,0,24,0,20.2,0
2004/11/1,1:15,16.1,0,85,0,24.6,0,59.1,0,21.1,0,23.9,0,20.2,0
2004/11/1,1:30,16.1,0,85,0,24.4,0,58.7,0,21.1,0,23.9,0,20.2,0
2004/11/1,1:45,16.1,0,86,0,24.4,0,58.8,0,21.1,0,23.8,0,20.1,0
2004/11/1,2:00,16.2,0,87,0,24.3,0,58.5,0,21.2,0,23.8,0,20.1,0
2004/11/1,2:15,16.1,0,89,0,24.2,0,58.6,0,21.2,0,23.8,0,20.1,0
2004/11/1,2:30,16.1,0,90,0,24.1,0,58.8,0,21.2,0,23.7,0,20.1,0
2004/11/1,2:45,16.2,0,91,0,24.1,0,59,0,21.3,0,23.7,0,20.2,0
2004/11/1,3:00,16,0,90,0,24,0,59.1,0,20.1,0,23.6,0,20.2,0
2004/11/1,3:15,16.2,0,92,0,23.9,0,59.2,0,20.2,0,23.6,0,20.1,0
2004/11/1,3:30,16.2,0,92,0,23.9,0,59.5,0,20.2,0,23.5,0,20.2,0
2004/11/1,3:45,16,0,93,0,23.8,0,59.7,0,20.3,0,23.5,0,20.2,0
2004/11/1,4:00,15.9,0,93,0,23.8,0,59.8,0,20.3,0,23.5,0,20.2,0
2004/11/1,4:15,15.9,0,93,0,23.7,0,59.9,0,20.3,0,23.4,0,20.2,0
2004/11/1,4:30,15.8,0,91,0,23.6,0,60.1,0,20.4,0,23.4,0,20.1,0
2004/11/1,4:45,15.9,0,91,0,23.6,0,60.6,0,20.5,0,23.3,0,20.1,0
2004/11/1,5:00,15.6,0,91,0,23.6,0,63.2,0,20.5,0,23.3,0,20.1,0
2004/11/1,5:15,15.3,0,92,0,23.6,0,62.6,0,20.5,0,23.3,0,20.1,0
2004/11/1,5:30,15.4,0,90,0,23.5,0,62.1,0,20.6,0,23.3,0,20.1,0
2004/11/1,5:45,15.6,0,89,0,23.5,0,61.8,0,20.6,0,23.3,0,20.1,0
2004/11/1,6:00,15.7,0,88,0,23.5,0,60.1,0,20.7,0,23.2,0,20.1,0
2004/11/1,6:15,15.6,0,89,0,23.3,0,59.1,0,20.7,0,23.1,0,20.1,0
2004/11/1,6:30,15.5,0,90,0,23.6,0,63.5,0,20.7,0,23.2,0,20.2,0
2004/11/1,6:45,15.8,0,89,0,23.5,0,61.7,0,20.8,0,23.2,0,20.3,0
2004/11/1,7:00,15.6,0,90,0,23.3,0,60.1,0,20.8,0,23.1,0,20.4,0
2004/11/1,7:15,15.7,0,91,0,23.2,0,58.1,0,20.9,0,22.8,0,20.4,0
2004/11/1,7:30,15.8,0,91,0,22.8,0,60.2,0,20.9,0,22.6,0,20.5,0
2004/11/1,7:45,16.5,0,89,0,22.7,0,60.2,0,21.5,0,22.4,0,20.5,0
2004/11/1,8:00,16.7,0,84,0,22.3,0,61.5,0,21.5,0,22,0,20.5,0
2004/11/1,8:15,17.1,0,86,0,22.4,0,61.9,0,21.5,0,21.9,0,20.6,0
2004/11/1,8:30,18.2,0,80,0,22.5,0,62.8,0,21.6,0,22,0,20.6,0
2004/11/1,8:45,19.6,0,75,0,22.4,0,64.2,0,21.6,0,22,0,20.7,0
2004/11/1,9:00,19.9,0,69,0,22.6,0,62.8,0,21.3,0,22,0,20.7,0
2004/11/1,9:15,19.7,0,70,0,22.7,0,62.7,0,21.4,0,22.2,0,20.8,0
2004/11/1,9:30,20,0,69,0,22.6,0,62.8,0,20.8,0,22.2,0,20.9,0
2004/11/1,9:45,19.9,0,68,0,22.6,0,62.4,0,20.8,0,22.2,0,20.9,0
2004/11/1,10:00,19.6,0,70,0,22.5,0,61.7,0,20.9,0,22.1,0,20.9,0
2004/11/1,10:15,20.2,0,67,0,22.2,0,63,0,21.2,0,21.9,0,20.9,0
2004/11/1,10:30,20.3,0,67,0,22.3,0,62.1,0,21.3,0,22,0,20.9,0
2004/11/1,10:45,19.7,0,72,0,22.6,0,60.9,0,21.3,0,22,0,20.9,0
2004/11/1,11:00,19.9,0,74,0,22.8,0,61.6,0,21.3,0,22.1,0,20.8,0
2004/11/1,11:15,20.2,0,72,0,23,0,61.4,0,20.8,0,22.2,0,20.8,0
2004/11/1,11:30,20.5,0,70,0,23,0,62.3,0,20.8,0,22.3,0,20.8,0
2004/11/1,11:45,21.2,0,68,0,23.1,0,61.4,0,20.4,0,22.3,0,20.8,0
2004/11/1,12:00,20.8,0,65,0,23.2,0,61.6,0,20.5,0,22.4,0,20.8,0
2004/11/1,12:15,21.6,0,60,0,23.3,0,59.9,0,20.5,0,22.5,0,20.8,0
2004/11/1,12:30,21.2,0,64,0,23.5,0,60.3,0,20.6,0,22.7,0,20.9,0
2004/11/1,12:45,21.2,0,63,0,23.6,0,59.7,0,20.6,0,22.8,0,20.9,0
2004/11/1,13:00,21.8,0,59,0,23.7,0,59.5,0,20.7,0,22.8,0,20.9,0
2004/11/1,13:15,21.3,0,62,0,23.9,0,59.7,0,20.8,0,23,0,20.9,0
2004/11/1,13:30,21.6,0,59,0,24,0,59.7,0,20.8,0,23.2,0,20.9,0
2004/11/1,13:45,22.9,0,58,0,24.1,0,59.7,0,20.5,0,23.3,0,20.9,0
2004/11/1,14:00,21.5,0,63,0,24.2,0,60,0,20.6,0,23.4,0,21,0
2004/11/1,14:15,21.4,0,62,0,24.3,0,59.9,0,20.7,0,23.5,0,21,0
2004/11/1,14:30,21,0,60,0,24.3,0,59,0,21.2,0,23.6,0,21,0
2004/11/1,14:45,21.2,0,59,0,24.2,0,57.6,0,21.2,0,23.5,0,21,0
2004/11/1,15:00,21.3,0,60,0,24.3,0,54.2,0,21.3,0,23.5,0,21,0
2004/11/1,15:15,21.1,0,60,0,24.1,0,54.8,0,20.9,0,23.4,0,20.9,0
2004/11/1,15:30,22.2,0,56,0,24,0,55.1,0,20.9,0,23.4,0,20.9,0
2004/11/1,15:45,21.9,0,57,0,24.1,0,54.7,0,21,0,23.4,0,20.9,0
2004/11/1,16:00,21.2,0,59,0,24.1,0,54.7,0,21,0,23.4,0,20.9,0
2004/11/1,16:15,21,0,60,0,23.9,0,53.7,0,21.1,0,23.3,0,20.9,0
2004/11/1,16:30,20.6,0,62,0,24,0,54.7,0,21.2,0,23.3,0,20.9,0
2004/11/1,16:45,20,0,64,0,24.2,0,55,0,21.2,0,23.5,0,20.9,0
2004/11/1,17:00,19.8,0,65,0,24.2,0,55.8,0,21.3,0,23.5,0,20.8,0
2004/11/1,17:15,19.3,0,68,0,24.3,0,54.1,0,20.7,0,23.5,0,20.8,0
2004/11/1,17:30,19,0,70,0,24.3,0,54.4,0,21.1,0,23.5,0,20.9,0
2004/11/1,17:45,18.9,0,72,0,24.4,0,55.3,0,21.2,0,23.5,0,21,0
2004/11/1,18:00,18.5,0,75,0,24.5,0,56.3,0,21.2,0,23.5,0,21.1,0
2004/11/1,18:15,18.3,0,76,0,24.5,0,57.9,0,21.1,0,23.6,0,21.2,0
2004/11/1,18:30,18,0,77,0,24.7,0,60.6,0,21.2,0,23.7,0,21.2,0
2004/11/1,18:45,17.9,0,78,0,24.5,0,59.5,0,21.8,0,23.8,0,21.2,0
2004/11/1,19:00,17.9,0,78,0,24.6,0,57.6,0,21.6,0,23.9,0,21.1,0
2004/11/1,19:15,17.7,0,79,0,24.8,0,57.9,0,21.6,0,24,0,21.1,0
2004/11/1,19:30,17.5,0,79,0,24.8,0,57.1,0,21.1,0,24.1,0,21.1,0
2004/11/1,19:45,17.4,0,79,0,24.9,0,56.5,0,21.2,0,24.2,0,21.1,0
2004/11/1,20:00,17.3,0,80,0,24.8,0,55.7,0,21.2,0,24.1,0,21.1,0
2004/11/1,20:15,17.3,0,82,0,24.9,0,58.7,0,21.3,0,24,0,21.2,0
2004/11/1,20:30,17.9,0,89,0,24.9,0,58.4,0,21.4,0,24.2,0,21.2,0
2004/11/1,20:45,17.3,0,84,0,25,0,57.9,0,21.4,0,24.2,0,21.2,0
2004/11/1,21:00,17.2,0,82,0,25.2,0,58.6,0,21.4,0,24.3,0,21.2,0
2004/11/1,21:15,17.2,0,83,0,25.3,0,57.8,0,21.5,0,24.4,0,21.1,0
2004/11/1,21:30,16.9,0,84,0,25.3,0,59.2,0,21.5,0,24.5,0,21.2,0
2004/11/1,21:45,17,0,84,0,25.4,0,59.2,0,21,0,24.5,0,21.2,0
2004/11/1,22:00,16.9,0,83,0,25.3,0,58.4,0,21,0,24.5,0,21.3,0
2004/11/1,22:15,16.8,0,83,0,25.4,0,57.9,0,21.1,0,24.5,0,21.3,0
2004/11/1,22:30,16.7,0,85,0,25.4,0,56.9,0,21.1,0,24.5,0,21.3,0
2004/11/1,22:45,16.5,0,86,0,25.3,0,56.7,0,21.2,0,24.6,0,21.3,0
2004/11/1,23:00,16.7,0,85,0,25.1,0,56,0,20.4,0,24.6,0,21.4,0
2004/11/1,23:15,16.5,0,87,0,24.9,0,56,0,20.4,0,24.5,0,21.3,0
2004/11/1,23:30,16.6,0,87,0,24.8,0,55.9,0,20.5,0,24.5,0,21.3,0
2004/11/1,23:45,16.5,0,87,0,24.8,0,55.8,0,20.5,0,24.5,0,21.2,0
2004/11/2,0:00,16.5,0,88,0,24.7,0,55.8,0,20.6,0,24.4,0,21.2,0
2004/11/2,0:15,16.5,0,85,0,24.8,0,56.2,0,20.6,0,24.4,0,21.1,0
2004/11/2,0:30,16.6,0,82,0,24.8,0,56.9,0,20.7,0,24.4,0,21.1,0
2004/11/2,0:45,16.5,0,83,0,24.8,0,57.2,0,20.7,0,24.4,0,21,0
2004/11/2,1:00,16.5,0,85,0,24.7,0,57.6,0,20.7,0,24.4,0,21,0
2004/11/2,1:15,16.3,0,87,0,24.7,0,57.9,0,20.8,0,24.3,0,21,0
2004/11/2,1:30,16,0,89,0,24.7,0,58.1,0,20.9,0,24.3,0,21,0
2004/11/2,1:45,16.3,0,82,0,24.6,0,58.4,0,20.9,0,24.3,0,21,0
2004/11/2,2:00,17,0,77,0,24.6,0,58.7,0,20.9,0,24.2,0,21,0
2004/11/2,2:15,17,0,75,0,24.6,0,58.8,0,21,0,24.2,0,21,0
2004/11/2,2:30,17,0,76,0,24.5,0,59,0,21.1,0,24.2,0,21,0
2004/11/2,2:45,17.3,0,74,0,24.4,0,59.1,0,20.5,0,24.2,0,21,0
2004/11/2,3:00,16.5,0,79,0,24.4,0,59.1,0,20.5,0,24.1,0,21,0
2004/11/2,3:15,16.3,0,80,0,24.4,0,59,0,20.2,0,24.1,0,21,0
2004/11/2,3:30,16.1,0,82,0,24.4,0,59.3,0,20.3,0,24,0,20.9,0
2004/11/2,3:45,15.9,0,81,0,24.2,0,59.5,0,20.4,0,24,0,20.9,0
2004/11/2,4:00,16.2,0,78,0,24.3,0,59.3,0,20.4,0,24,0,20.9,0
2004/11/2,4:15,15.8,0,81,0,24.2,0,59.5,0,20.5,0,24,0,20.8,0
2004/11/2,4:30,15.6,0,82,0,24.2,0,59.5,0,20.5,0,23.9,0,20.7,0
2004/11/2,4:45,15.5,0,83,0,24.1,0,59.7,0,20.6,0,23.9,0,20.7,0
2004/11/2,5:00,15.5,0,85,0,24,0,59.9,0,20.6,0,23.8,0,20.7,0
2004/11/2,5:15,15.8,0,83,0,24,0,60,0,20.7,0,23.8,0,20.6,0
2004/11/2,5:30,15.6,0,84,0,23.9,0,60.1,0,20.7,0,23.8,0,20.6,0
2004/11/2,5:45,15.6,0,85,0,23.9,0,60.3,0,20.8,0,23.7,0,20.6,0
2004/11/2,6:00,15.9,0,87,0,23.8,0,60.5,0,20.3,0,23.7,0,20.6,0
2004/11/2,6:15,17.3,0,84,0,23.8,0,59.6,0,20.3,0,23.7,0,20.7,0
2004/11/2,6:30,17.5,0,82,0,23.6,0,58.9,0,20.4,0,23.5,0,20.7,0
2004/11/2,6:45,17.5,0,83,0,23.7,0,60.3,0,20.4,0,23.4,0,20.8,0
2004/11/2,7:00,17.7,0,82,0,23.6,0,59.9,0,20.4,0,23.3,0,20.8,0
2004/11/2,7:15,17.8,0,74,0,23.4,0,59.9,0,21.4,0,23,0,20.8,0
2004/11/2,7:30,17.9,0,71,0,22.9,0,58.3,0,21.6,0,22.6,0,20.8,0
2004/11/2,7:45,18,0,73,0,22.7,0,57.8,0,21.6,0,22.4,0,20.7,0
2004/11/2,8:00,18.9,0,68,0,22.2,0,58.8,0,21.1,0,22,0,20.6,0
2004/11/2,8:15,19.2,0,67,0,22.1,0,59.3,0,21.1,0,21.9,0,20.5,0
2004/11/2,8:30,19.5,0,67,0,22.2,0,60.4,0,21.1,0,21.8,0,20.5,0
2004/11/2,8:45,19.1,0,64,0,22.2,0,59.5,0,21.2,0,21.8,0,20.6,0
2004/11/2,9:00,18.7,0,65,0,21.9,0,58,0,21.2,0,21.7,0,20.6,0
2004/11/2,9:15,19.4,0,62,0,21.9,0,57.7,0,21.1,0,21.5,0,20.5,0
2004/11/2,9:30,18.9,0,60,0,21.9,0,57,0,20.7,0,21.6,0,20.5,0
2004/11/2,9:45,19,0,59,0,21.8,0,56.1,0,21.1,0,21.4,0,20.4,0
2004/11/2,10:00,19.3,0,56,0,22,0,54.7,0,21,0,21.4,0,20.4,0
2004/11/2,10:15,19.9,0,54,0,22.2,0,53.4,0,21.1,0,21.6,0,20.3,0
2004/11/2,10:30,19.9,0,55,0,22.6,0,56,0,21.1,0,22,0,20.3,0
2004/11/2,10:45,20.3,0,54,0,22.9,0,61.4,0,21.2,0,22.4,0,20.3,0
2004/11/2,11:00,20.1,0,54,0,23,0,62.6,0,21.2,0,22.7,0,20.4,0
2004/11/2,11:15,20.1,0,57,0,23.2,0,61.6,0,21.2,0,22.9,0,20.4,0
2004/11/2,11:30,20.5,0,54,0,23.3,0,59.9,0,21.3,0,23.1,0,20.5,0
2004/11/2,11:45,20.5,0,49,0,23.4,0,59.2,0,21.3,0,23.2,0,20.6,0
2004/11/2,12:00,20.2,0,51,0,23.4,0,51.9,0,21.3,0,23.3,0,20.6,0
2004/11/2,12:15,20,0,55,0,23.4,0,50.1,0,21.4,0,23.2,0,20.6,0
2004/11/2,12:30,19.1,0,61,0,23.4,0,49.4,0,21.4,0,23.1,0,20.6,0
2004/11/2,12:45,19.3,0,60,0,23.4,0,50.8,0,21.5,0,23,0,20.6,0
2004/11/2,13:00,19.9,0,56,0,23.3,0,51.5,0,21.5,0,23,0,20.6,0
2004/11/2,13:15,20,0,55,0,23.3,0,50.9,0,21.5,0,22.9,0,20.5,0
2004/11/2,13:30,20.3,0,54,0,23.4,0,50.3,0,21.5,0,22.9,0,20.5,0
2004/11/2,13:45,19.9,0,57,0,23.4,0,50.1,0,21.6,0,22.9,0,20.5,0
2004/11/2,14:00,19.9,0,56,0,23.4,0,49.9,0,21.6,0,22.8,0,20.5,0
2004/11/2,14:15,20.1,0,57,0,23.4,0,50.3,0,21.6,0,22.8,0,20.5,0
2004/11/2,14:30,20.1,0,56,0,23.2,0,50.9,0,21.2,0,22.7,0,20.5,0
2004/11/2,14:45,19.9,0,52,0,23.2,0,58.4,0,21.2,0,22.7,0,20.5,0
2004/11/2,15:00,19.7,0,53,0,23.3,0,55.5,0,21.2,0,22.6,0,20.5,0
2004/11/2,15:15,19.4,0,56,0,23.8,0,50.4,0,21.3,0,22.6,0,20.4,0
2004/11/2,15:30,19.6,0,54,0,23.3,0,50.5,0,21.3,0,22.6,0,20.4,0
2004/11/2,15:45,19.6,0,54,0,23.2,0,49.3,0,21.3,0,22.6,0,20.4,0
2004/11/2,16:00,19.6,0,53,0,23.1,0,48.5,0,21.4,0,22.5,0,20.4,0
2004/11/2,16:15,19.8,0,55,0,23,0,48.6,0,21.4,0,22.4,0,20.3,0
2004/11/2,16:30,19.4,0,54,0,22.9,0,49.7,0,21.5,0,22.4,0,20.3,0
2004/11/2,16:45,18.9,0,56,0,22.9,0,48.4,0,21.5,0,22.4,0,20.3,0
2004/11/2,17:00,18.6,0,57,0,23.1,0,48.6,0,20.4,0,22.3,0,20.3,0
2004/11/2,17:15,18.5,0,59,0,23,0,49.9,0,20.5,0,22.3,0,20.3,0
2004/11/2,17:30,18.5,0,60,0,23.1,0,50.3,0,20.7,0,22.4,0,20.3,0
2004/11/2,17:45,18.1,0,64,0,23,0,50.8,0,20.8,0,22.4,0,20.3,0
2004/11/2,18:00,17.8,0,67,0,23.4,0,53.2,0,20.8,0,22.6,0,20.3,0
2004/11/2,18:15,18,0,59,0,23.6,0,59.2,0,20.3,0,22.8,0,20.3,0
2004/11/2,18:30,18.1,0,59,0,23.7,0,58.6,0,20.4,0,23,0,20.4,0
2004/11/2,18:45,18.1,0,59,0,23.8,0,57.2,0,20.4,0,23.1,0,20.3,0
2004/11/2,19:00,18.1,0,59,0,24,0,55.6,0,20.4,0,23.2,0,20.2,0
2004/11/2,19:15,18.1,0,57,0,23.9,0,51.7,0,20.5,0,23.1,0,20.1,0
2004/11/2,19:30,17.5,0,64,0,23.7,0,47.9,0,20.5,0,22.9,0,20,0
2004/11/2,19:45,17.2,0,65,0,23.7,0,49.8,0,20.6,0,22.9,0,19.9,0
2004/11/2,20:00,17.1,0,66,0,23.8,0,53.4,0,20.6,0,23.1,0,19.9,0
2004/11/2,20:15,17.1,0,65,0,23.7,0,52.7,0,20.6,0,23.2,0,19.9,0
2004/11/2,20:30,17.3,0,64,0,23.8,0,51.8,0,20.3,0,23.1,0,19.9,0
2004/11/2,20:45,17.5,0,62,0,23.7,0,50.9,0,20.5,0,23.2,0,19.8,0
2004/11/2,21:00,17.3,0,61,0,23.9,0,50.8,0,20.9,0,23.2,0,19.7,0
2004/11/2,21:15,17.4,0,62,0,24.2,0,54.1,0,20.9,0,23.4,0,19.6,0
2004/11/2,21:30,17.3,0,61,0,24.2,0,54.5,0,21,0,23.5,0,19.6,0
2004/11/2,21:45,17.1,0,59,0,24.3,0,53,0,21,0,23.6,0,19.6,0
2004/11/2,22:00,16.9,0,58,0,24.3,0,54.1,0,21,0,23.5,0,19.6,0
2004/11/2,22:15,16.8,0,59,0,24.5,0,55.9,0,21.1,0,23.7,0,19.6,0
2004/11/2,22:30,16.8,0,61,0,24.7,0,56.1,0,21.1,0,23.8,0,19.6,0
2004/11/2,22:45,16.8,0,64,0,24.8,0,56.8,0,21.1,0,24,0,19.6,0
2004/11/2,23:00,16.9,0,62,0,25,0,60.4,0,21.1,0,24.2,0,19.6,0
2004/11/2,23:15,16.7,0,58,0,25.2,0,58.8,0,21.2,0,24.3,0,19.6,0
2004/11/2,23:30,16.5,0,54,0,25.1,0,58.5,0,21.2,0,24.3,0,19.7,0
2004/11/2,23:45,16.3,0,52,0,25.1,0,57,0,21.2,0,24.3,0,19.7,0
2004/11/3,0:00,16.1,0,54,0,25,0,55.6,0,21.2,0,24.3,0,19.6,0
2004/11/3,0:15,16.2,0,53,0,25,0,54.7,0,21.2,0,24.2,0,19.6,0
2004/11/3,0:30,16.3,0,53,0,25,0,54.1,0,21.3,0,24.2,0,19.6,0
2004/11/3,0:45,16.3,0,52,0,24.9,0,54,0,21.3,0,24.2,0,19.6,0
2004/11/3,1:00,16.3,0,55,0,24.9,0,53.6,0,21.3,0,24.2,0,19.6,0
2004/11/3,1:15,16.4,0,58,0,24.9,0,53.4,0,21.3,0,24.1,0,19.6,0
2004/11/3,1:30,16.3,0,56,0,24.8,0,53.1,0,21.3,0,24.1,0,19.6,0
2004/11/3,1:45,16.2,0,53,0,24.8,0,53,0,21.3,0,24.1,0,19.6,0
2004/11/3,2:00,16.2,0,53,0,24.8,0,52.8,0,20.3,0,24.1,0,19.6,0
2004/11/3,2:15,16.2,0,51,0,24.8,0,52.9,0,20.4,0,24.1,0,19.6,0
2004/11/3,2:30,16.2,0,53,0,24.7,0,51.8,0,20.4,0,24,0,19.6,0
2004/11/3,2:45,16.3,0,53,0,24.5,0,48.6,0,19.9,0,23.8,0,19.5,0
2004/11/3,3:00,16.2,0,54,0,24.4,0,47,0,20,0,23.7,0,19.6,0
2004/11/3,3:15,16.1,0,56,0,24.2,0,47,0,20,0,23.6,0,19.5,0
2004/11/3,3:30,15.9,0,57,0,24.1,0,46.5,0,20,0,23.5,0,19.5,0
2004/11/3,3:45,15.8,0,55,0,23.9,0,46.8,0,20,0,23.4,0,19.5,0
2004/11/3,4:00,15.8,0,55,0,23.7,0,47.4,0,20.1,0,23.3,0,19.5,0
2004/11/3,4:15,16.1,0,54,0,23.7,0,47.5,0,20,0,23.2,0,19.6,0
2004/11/3,4:30,15.5,0,55,0,23.6,0,47.3,0,20.1,0,23.1,0,19.6,0
2004/11/3,4:45,15.3,0,57,0,23.4,0,47.9,0,20.2,0,23,0,19.6,0
2004/11/3,5:00,15.4,0,59,0,23.4,0,48.3,0,20.2,0,22.9,0,19.6,0
2004/11/3,5:15,15.4,0,59,0,23.3,0,48.6,0,20.2,0,22.8,0,19.5,0
2004/11/3,5:30,15.7,0,58,0,23.2,0,49.1,0,20.2,0,22.8,0,19.5,0
2004/11/3,5:45,15.8,0,58,0,23.1,0,49.3,0,20.2,0,22.7,0,19.5,0
2004/11/3,6:00,16.1,0,54,0,23,0,49.4,0,20.3,0,22.6,0,19.5,0
2004/11/3,6:15,16.4,0,53,0,22.9,0,49.2,0,20.3,0,22.6,0,19.5,0
2004/11/3,6:30,16.6,0,53,0,22.8,0,48.7,0,20.3,0,22.5,0,19.5,0
2004/11/3,6:45,16.5,0,55,0,22.7,0,48.7,0,20.4,0,22.4,0,19.5,0
2004/11/3,7:00,16.5,0,58,0,22.6,0,48.9,0,20.4,0,22.4,0,19.5,0
2004/11/3,7:15,16.7,0,54,0,22.6,0,49.5,0,20,0,22.3,0,19.5,0
2004/11/3,7:30,16.7,0,54,0,22.5,0,49.4,0,20,0,22.2,0,19.5,0
2004/11/3,7:45,16.8,0,53,0,22.5,0,46.5,0,20,0,22.3,0,19.5,0
2004/11/3,8:00,17.1,0,49,0,22.4,0,43.5,0,21.5,0,22.1,0,19.6,0
2004/11/3,8:15,17.1,0,53,0,22.4,0,47,0,21.5,0,22.1,0,19.6,0
2004/11/3,8:30,17.3,0,51,0,22.4,0,47.5,0,21.5,0,22.1,0,19.6,0
2004/11/3,8:45,17.2,0,54,0,22.3,0,46.2,0,21.5,0,22.1,0,19.6,0
2004/11/3,9:00,17.2,0,57,0,21.6,0,44.9,0,21.5,0,21.7,0,19.5,0
2004/11/3,9:15,17.3,0,54,0,20.8,0,49.5,0,21.5,0,21.3,0,19.4,0
2004/11/3,9:30,17.5,0,52,0,20.7,0,49.1,0,21.5,0,20.9,0,19.4,0
2004/11/3,9:45,17.8,0,51,0,21.2,0,48.4,0,21.4,0,20.9,0,19.4,0
2004/11/3,10:00,18.1,0,52,0,21.4,0,47.5,0,21.7,0,21,0,19.2,0
2004/11/3,10:15,18.6,0,49,0,21,0,49.3,0,21.7,0,20.9,0,19.1,0
2004/11/3,10:30,18.4,0,51,0,21.5,0,51.1,0,20.9,0,21,0,19.1,0
2004/11/3,10:45,18.3,0,52,0,21.6,0,52,0,20.9,0,21.3,0,19.1,0
2004/11/3,11:00,18.8,0,53,0,21.7,0,51.6,0,20.7,0,21.3,0,19.1,0
2004/11/3,11:15,17.8,0,60,0,21.8,0,51.6,0,20.8,0,21.3,0,19.1,0
2004/11/3,11:30,18.1,0,57,0,21.8,0,51.7,0,20.9,0,21.3,0,19.1,0
2004/11/3,11:45,18.2,0,56,0,21.9,0,52,0,20.9,0,21.3,0,19.1,0
2004/11/3,12:00,18.1,0,58,0,21.9,0,52,0,20.2,0,21.3,0,19.2,0
2004/11/3,12:15,18.2,0,59,0,22,0,52.3,0,20.5,0,21.3,0,19.2,0
2004/11/3,12:30,18.4,0,57,0,22,0,52.4,0,20.7,0,21.3,0,19.2,0
2004/11/3,12:45,18.6,0,53,0,22,0,52.5,0,20.7,0,21.3,0,19.3,0
2004/11/3,13:00,18.5,0,54,0,22.1,0,52.5,0,20.2,0,21.3,0,19.3,0
2004/11/3,13:15,18.5,0,55,0,22.1,0,52,0,20.2,0,21.3,0,19.3,0
2004/11/3,13:30,18.4,0,59,0,22.1,0,52,0,20.3,0,21.3,0,19.4,0
2004/11/3,13:45,18.1,0,60,0,22.1,0,52,0,20.3,0,21.3,0,19.4,0
2004/11/3,14:00,17.8,0,61,0,22.1,0,52.5,0,20.4,0,21.3,0,19.4,0
2004/11/3,14:15,17.8,0,62,0,22.1,0,52.4,0,20.4,0,21.3,0,19.4,0
2004/11/3,14:30,18,0,60,0,22.2,0,52.8,0,19.8,0,21.3,0,19.5,0
2004/11/3,14:45,17.9,0,60,0,22.1,0,52.9,0,19.9,0,21.3,0,19.5,0
2004/11/3,15:00,17.6,0,60,0,22.1,0,53,0,19.7,0,21.3,0,19.5,0
2004/11/3,15:15,17.6,0,61,0,22.1,0,52.9,0,19.8,0,21.3,0,19.5,0
2004/11/3,15:30,18.1,0,60,0,22.1,0,52.9,0,19.8,0,21.3,0,19.5,0
2004/11/3,15:45,17.6,0,59,0,22.2,0,52.8,0,19.9,0,21.3,0,19.6,0
2004/11/3,16:00,17.4,0,59,0,22.1,0,52.7,0,20,0,21.3,0,19.5,0
2004/11/3,16:15,17.3,0,60,0,22.1,0,52.2,0,19.7,0,21.3,0,19.5,0
2004/11/3,16:30,17.1,0,59,0,22,0,49.6,0,19.7,0,21.3,0,19.5,0
2004/11/3,16:45,16.8,0,59,0,22.2,0,50.4,0,20.1,0,21.3,0,19.5,0
2004/11/3,17:00,16.8,0,58,0,22.3,0,50.3,0,20.1,0,21.4,0,19.5,0
2004/11/3,17:15,16.5,0,60,0,22.4,0,49.9,0,20,0,21.5,0,19.5,0
2004/11/3,17:30,16.4,0,62,0,22.5,0,50.7,0,20.1,0,21.7,0,19.5,0
2004/11/3,17:45,16.2,0,63,0,22.7,0,50.8,0,20.6,0,21.8,0,19.5,0
2004/11/3,18:00,15.9,0,64,0,22.8,0,52.3,0,20.7,0,22,0,19.5,0
2004/11/3,18:15,15.7,0,65,0,22.7,0,52.3,0,20.7,0,22,0,19.6,0
2004/11/3,18:30,15.7,0,64,0,22.9,0,53.1,0,20.8,0,22.2,0,19.6,0
2004/11/3,18:45,15.5,0,65,0,22.9,0,52.6,0,20.4,0,22.3,0,19.6,0
2004/11/3,19:00,15.3,0,65,0,23.1,0,55.2,0,20.6,0,22.4,0,19.6,0
2004/11/3,19:15,15.1,0,65,0,23.2,0,55.8,0,20.6,0,22.5,0,19.5,0
2004/11/3,19:30,14.8,0,69,0,23.4,0,55.3,0,20.6,0,22.6,0,19.5,0
2004/11/3,19:45,14.4,0,70,0,23.4,0,54.3,0,20.4,0,22.7,0,19.4,0
2004/11/3,20:00,14.1,0,70,0,23.4,0,53.9,0,20.5,0,22.8,0,19.4,0
2004/11/3,20:15,14.1,0,70,0,23.5,0,52.9,0,20.5,0,22.9,0,19.5,0
2004/11/3,20:30,13.9,0,73,0,23.6,0,52.1,0,20.5,0,22.9,0,19.5,0
2004/11/3,20:45,13.8,0,78,0,23.5,0,50.8,0,20.9,0,22.8,0,19.4,0
2004/11/3,21:00,13.8,0,80,0,23.5,0,49.9,0,20.9,0,22.8,0,19.4,0
2004/11/3,21:15,13.5,0,79,0,23.8,0,55.7,0,20.9,0,23,0,19.4,0
2004/11/3,21:30,13.5,0,77,0,24,0,58.8,0,21,0,23.2,0,19.3,0
2004/11/3,21:45,13.4,0,78,0,24.1,0,58.6,0,20.1,0,23.3,0,19.2,0
2004/11/3,22:00,13.4,0,79,0,23.9,0,56,0,20.2,0,23.4,0,19.1,0
2004/11/3,22:15,12.8,0,81,0,24,0,56.1,0,20.2,0,23.4,0,19.2,0
2004/11/3,22:30,12.7,0,84,0,24,0,56.5,0,20.3,0,23.4,0,19.2,0
2004/11/3,22:45,12.7,0,84,0,24,0,57,0,20.3,0,23.4,0,19.1,0
2004/11/3,23:00,13,0,84,0,23.9,0,57.1,0,20.3,0,23.4,0,19.1,0
2004/11/3,23:15,13.2,0,84,0,23.9,0,57.3,0,20.4,0,23.4,0,19,0
2004/11/3,23:30,13,0,84,0,23.9,0,57.2,0,20.5,0,23.4,0,18.9,0
2004/11/3,23:45,12.7,0,85,0,23.9,0,57.2,0,20.5,0,23.4,0,18.9,0
2004/11/4,0:00,12.6,0,87,0,23.9,0,57.2,0,20.6,0,23.4,0,18.9,0
2004/11/4,0:15,12.5,0,84,0,23.9,0,57.1,0,20.6,0,23.4,0,18.8,0
2004/11/4,0:30,12.3,0,86,0,23.8,0,56.7,0,19.7,0,23.4,0,18.8,0
2004/11/4,0:45,12.1,0,87,0,23.7,0,53,0,19.8,0,23.2,0,18.8,0
2004/11/4,1:00,11.8,0,88,0,23.5,0,51.7,0,19.8,0,23,0,18.7,0
2004/11/4,1:15,11.7,0,89,0,23.4,0,51.7,0,19.9,0,22.9,0,18.7,0
2004/11/4,1:30,11.7,0,90,0,23.2,0,51.8,0,19.9,0,22.7,0,18.7,0
2004/11/4,1:45,11.6,0,89,0,23.1,0,51.7,0,20,0,22.6,0,18.6,0
2004/11/4,2:00,11.4,0,88,0,22.9,0,51.7,0,20,0,22.5,0,18.6,0
2004/11/4,2:15,11.4,0,88,0,22.8,0,51.9,0,20.1,0,22.4,0,18.5,0
2004/11/4,2:30,11.3,0,87,0,22.7,0,51.7,0,20.1,0,22.3,0,18.5,0
2004/11/4,2:45,11.5,0,84,0,22.5,0,52,0,20.2,0,22.2,0,18.4,0
2004/11/4,3:00,11.4,0,86,0,22.4,0,52.4,0,20.2,0,22.1,0,18.3,0
2004/11/4,3:15,11.1,0,87,0,22.3,0,52.3,0,20.3,0,22,0,18.3,0
2004/11/4,3:30,11.1,0,87,0,22.2,0,52.2,0,20.4,0,21.9,0,18.2,0
2004/11/4,3:45,11.1,0,85,0,22,0,52.5,0,20.4,0,21.8,0,18.1,0
2004/11/4,4:00,11,0,87,0,21.9,0,51.9,0,20.4,0,21.8,0,18.1,0
2004/11/4,4:15,10.6,0,88,0,21.8,0,52.3,0,20.5,0,21.7,0,18,0
2004/11/4,4:30,10.5,0,89,0,21.7,0,52.3,0,20.5,0,21.6,0,18,0
2004/11/4,4:45,10.5,0,88,0,21.6,0,52.6,0,20.5,0,21.5,0,17.9,0
2004/11/4,5:00,10.5,0,89,0,21.5,0,52.6,0,20.6,0,21.4,0,17.8,0
2004/11/4,5:15,10.3,0,89,0,21.4,0,52.7,0,20.6,0,21.4,0,17.8,0
2004/11/4,5:30,10.2,0,90,0,21.3,0,52.8,0,20.7,0,21.3,0,17.7,0
2004/11/4,5:45,10.1,0,91,0,21.2,0,52.8,0,20.7,0,21.2,0,17.6,0
2004/11/4,6:00,10,0,91,0,21.1,0,53,0,20.7,0,21.1,0,17.6,0
2004/11/4,6:15,9.9,0,91,0,21.1,0,52.5,0,20.8,0,21.1,0,17.8,0
2004/11/4,6:30,9.9,0,91,0,21.2,0,54.4,0,21.2,0,21.1,0,18,0
2004/11/4,6:45,9.8,0,91,0,21.4,0,56.7,0,21.2,0,21.3,0,18.1,0
2004/11/4,7:00,9.8,0,91,0,21.2,0,51.7,0,21.2,0,21.1,0,18.2,0
2004/11/4,7:15,9.8,0,91,0,21.1,0,51.6,0,21.2,0,21,0,18.2,0
2004/11/4,7:30,10.4,0,91,0,21,0,53.5,0,21.2,0,20.8,0,18.2,0
2004/11/4,7:45,11.6,0,87,0,20.9,0,54.3,0,20.6,0,20.7,0,18.2,0
2004/11/4,8:00,12.2,0,85,0,20,0,50.7,0,21.4,0,20.1,0,18.1,0
2004/11/4,8:15,13,0,82,0,19.3,0,54.5,0,21.4,0,19,0,18.1,0
2004/11/4,8:30,13.5,0,81,0,19.5,0,55.3,0,21.4,0,18.7,0,18.2,0
2004/11/4,8:45,14,0,78,0,19.7,0,55,0,21.4,0,19,0,18.2,0
2004/11/4,9:00,14.5,0,76,0,19.7,0,55.2,0,20.1,0,19.1,0,18.3,0
2004/11/4,9:15,15,0,76,0,19.9,0,55.3,0,20.7,0,19.3,0,18.5,0
2004/11/4,9:30,15.5,0,71,0,20.1,0,57.1,0,20.7,0,19.4,0,18.6,0
2004/11/4,9:45,16.2,0,68,0,20.4,0,57.2,0,20.9,0,19.6,0,18.7,0
2004/11/4,10:00,16.4,0,67,0,20.5,0,56,0,21.3,0,19.8,0,18.7,0
2004/11/4,10:15,16.9,0,59,0,20.7,0,55.9,0,21.2,0,19.9,0,18.7,0
2004/11/4,10:30,17.4,0,50,0,20.7,0,51.8,0,21.2,0,19.9,0,18.7,0
2004/11/4,10:45,17.8,0,49,0,20.8,0,47.1,0,21.3,0,20,0,18.7,0
2004/11/4,11:00,18.1,0,50,0,20.9,0,46.2,0,21.3,0,19.9,0,18.8,0
2004/11/4,11:15,18.6,0,48,0,20.8,0,45.5,0,21.3,0,19.9,0,18.8,0
2004/11/4,11:30,18.9,0,47,0,20.8,0,46.2,0,21.3,0,20,0,18.8,0
2004/11/4,11:45,19.1,0,44,0,21.7,0,50.6,0,21.3,0,20.5,0,18.8,0
2004/11/4,12:00,19.4,0,42,0,22.1,0,49.6,0,21.4,0,20.9,0,18.8,0
2004/11/4,12:15,19.7,0,43,0,22.4,0,46.5,0,21.3,0,21.2,0,18.8,0
2004/11/4,12:30,19.9,0,40,0,22.7,0,45.8,0,21.4,0,21.4,0,18.8,0
2004/11/4,12:45,19.8,0,42,0,22.7,0,46.5,0,21.4,0,21.6,0,18.8,0
2004/11/4,13:00,20.2,0,43,0,22.7,0,47.5,0,21.4,0,21.7,0,18.9,0
2004/11/4,13:15,20.1,0,43,0,22.8,0,48.2,0,21.4,0,21.8,0,19,0
2004/11/4,13:30,20.2,0,42,0,22.9,0,48.3,0,21.5,0,21.9,0,19.1,0
2004/11/4,13:45,20.4,0,41,0,23.1,0,50,0,20,0,22,0,19.2,0
2004/11/4,14:00,21,0,40,0,23.2,0,50.7,0,19.8,0,22.2,0,19.3,0
2004/11/4,14:15,21.2,0,39,0,23.2,0,51.2,0,20.9,0,22.3,0,19.3,0
2004/11/4,14:30,21.6,0,39,0,23.3,0,50.9,0,21,0,22.4,0,19.4,0
2004/11/4,14:45,21.6,0,39,0,23.4,0,51,0,21,0,22.5,0,19.5,0
2004/11/4,15:00,21.8,0,39,0,23.4,0,51.2,0,21,0,22.6,0,19.5,0
2004/11/4,15:15,21.7,0,42,0,23.5,0,51.5,0,21.1,0,22.7,0,19.6,0
2004/11/4,15:30,21.9,0,43,0,23.6,0,51.8,0,21.1,0,22.8,0,19.6,0
2004/11/4,15:45,21.5,0,43,0,23.7,0,52.2,0,21.1,0,22.9,0,19.7,0
2004/11/4,16:00,21.2,0,45,0,23.7,0,51.1,0,21.1,0,23,0,19.8,0
2004/11/4,16:15,20.5,0,46,0,23.8,0,50,0,21.2,0,23,0,19.8,0
2004/11/4,16:30,20,0,49,0,23.9,0,51.1,0,21.2,0,23.2,0,19.8,0
2004/11/4,16:45,19.5,0,51,0,24,0,51.8,0,21.3,0,23.3,0,19.8,0
2004/11/4,17:00,18.9,0,53,0,24,0,51.4,0,21.4,0,23.3,0,19.8,0
2004/11/4,17:15,18.3,0,58,0,24.2,0,54.4,0,21.5,0,23.5,0,19.8,0
2004/11/4,17:30,17.7,0,62,0,23.9,0,47.8,0,21.5,0,23.3,0,19.9,0
2004/11/4,17:45,17.3,0,62,0,23.7,0,47.9,0,21.6,0,23.1,0,20,0
2004/11/4,18:00,16.8,0,63,0,23.5,0,45.4,0,21.6,0,22.8,0,20,0
2004/11/4,18:15,16.2,0,65,0,23.6,0,47.2,0,21.6,0,22.6,0,19.8,0
2004/11/4,18:30,16,0,67,0,23.8,0,49.9,0,21.7,0,22.8,0,19.7,0
2004/11/4,18:45,15.6,0,69,0,23.9,0,50.6,0,20.4,0,22.9,0,19.5,0
2004/11/4,19:00,15.5,0,70,0,24,0,51.2,0,20.4,0,23,0,19.3,0
2004/11/4,19:15,15.1,0,71,0,24,0,51.8,0,20.5,0,23.1,0,19.3,0
2004/11/4,19:30,14.9,0,72,0,23.9,0,49.3,0,19.7,0,22.9,0,19.2,0
2004/11/4,19:45,14.8,0,74,0,23.8,0,51.8,0,19.8,0,23.1,0,19,0
2004/11/4,20:00,14.5,0,77,0,23.7,0,49.6,0,19.8,0,23.1,0,18.9,0
2004/11/4,20:15,14.4,0,77,0,24.1,0,50.7,0,19.9,0,23.3,0,19.1,0
2004/11/4,20:30,14,0,79,0,24.2,0,52.5,0,19.9,0,23.4,0,19.1,0
2004/11/4,20:45,13.6,0,82,0,24.3,0,55,0,20.1,0,23.5,0,19.2,0
2004/11/4,21:00,13.4,0,83,0,24.4,0,55.7,0,20.1,0,23.6,0,19.2,0
2004/11/4,21:15,14.6,0,99,0,24.6,0,58.8,0,20.1,0,23.7,0,19.3,0
2004/11/4,21:30,13.4,0,88,0,24.6,0,59,0,20.2,0,23.9,0,19.3,0
2004/11/4,21:45,13.2,0,86,0,24.2,0,55.9,0,20.2,0,23.8,0,19.4,0
2004/11/4,22:00,12.9,0,86,0,24.6,0,55.6,0,20.2,0,23.9,0,19.4,0
2004/11/4,22:15,12.9,0,87,0,24.7,0,56.2,0,20.2,0,24,0,19.4,0
2004/11/4,22:30,13,0,87,0,24.8,0,56.6,0,20.3,0,24.1,0,19.5,0
2004/11/4,22:45,12.9,0,86,0,24.8,0,56.2,0,20.3,0,24.1,0,19.5,0
2004/11/4,23:00,12.6,0,87,0,24.8,0,56.5,0,20.3,0,24.2,0,19.4,0